Location: Newark
(49.5042°N, 20.1881°E)
Time: 10:13:23
(UTC+00:00)

Envisat - Visible Passes

Search period start: 29 September 2020 00:00
Search period end: 09 October 2020 00:00
Orbit: 764 x 766 km, 98.1° (Epoch: 29 September)

Date Brightness Start Highest point End Pass type
(mag) Time Alt. Az. Time Alt. Az. Time Alt. Az.
29 Sep 6.3 17:21:06 10° WSW 17:23:51 15° W 17:26:37 10° NW visible
30 Sep 5.9 03:44:12 10° NE 03:48:10 22° E 03:52:05 10° SE visible
01 Oct 6.7 03:09:43 10° ENE 03:10:50 11° E 03:11:58 10° E visible
02 Oct 6.1 17:08:55 10° SW 17:12:20 18° W 17:15:46 10° NW visible
03 Oct 6.1 03:33:11 10° NE 03:36:40 18° E 03:40:07 10° SE visible
04 Oct 6.7 17:37:09 10° W 17:38:09 11° W 17:39:10 10° WNW visible
05 Oct 5.3 03:57:56 10° NNE 04:02:23 29° E 04:06:47 10° SSE visible
05 Oct 5.9 16:56:56 10° SW 17:00:50 22° W 17:04:46 10° NW visible
06 Oct 6.3 03:22:20 10° NE 03:25:09 15° E 03:27:56 10° ESE visible
07 Oct 6.4 17:24:11 10° WSW 17:26:37 13° W 17:29:03 10° WNW visible
08 Oct 5.7 03:46:49 10° NE 03:50:54 24° E 03:54:58 10° SE visible
08 Oct 5.5 16:45:05 10° SSW 16:49:21 27° W 16:53:40 10° NW visible
